QPF
0.04 0.03 0.03 0.03 0.04 0.03 0.02 0.02 0.02 0.02 0.03 0.03 0.03 0.02 0.02 0.02 0.02 0.03 0.03 0.03 0.03 0.02 0.02 0.03 0.03 0.03 0.03 0.03 0.03 0.04 0.04 0.04 0.04 0.03 0.02 0.02 0.02 0.02 0.02 0.02 0.03 0.03 0.04
0.04 0.05 0.05 0.05 0.04 0.04 0.03 0.02 0.02 0.03 0.03 0.03 0.03 0.03 0.02 0.02 0.02 0.03 0.03 0.02 0.02 0.02 0.02 0.03 0.03 0.03 0.03 0.03 0.03 0.03 0.03 0.03 0.03 0.03 0.02 0.02 0.02 0.02 0.02 0.02 0.03 0.03 0.03
0.05 0.05 0.05 0.05 0.04 0.04 0.03 0.03 0.03 0.03 0.03 0.03 0.03 0.03 0.03 0.03 0.03 0.03 0.03 0.02 0.02 0.02 0.02 0.03 0.03 0.03 0.03 0.03 0.03 0.03 0.03 0.03 0.03 0.03 0.02 0.02 0.02 0.02 0.02 0.03 0.03 0.03 0.03
0.05 0.05 0.05 0.05 0.04 0.04 0.04 0.04 0.03 0.03 0.03 0.03 0.03 0.03 0.03 0.03 0.03 0.03 0.03 0.03 0.02 0.02 0.02 0.03 0.03 0.03 0.03 0.03 0.03 0.03 0.03 0.03 0.03 0.03 0.02 0.02 0.02 0.03 0.03 0.03 0.04 0.03 0.02
0.06 0.06 0.06 0.06 0.06 0.06 0.05 0.05 0.04 0.04 0.04 0.04 0.03 0.03 0.03 0.03 0.03 0.03 0.03 0.03 0.02 0.02 0.02 0.02 0.02 0.03 0.03 0.03 0.03 0.03 0.03 0.03 0.03 0.03 0.03 0.03 0.02 0.03 0.03 0.03 0.03 0.03 0.03
0.06 0.07 0.07 0.05 0.05 0.05 0.05 0.05 0.05 0.04 0.04 0.03 0.03 0.03 0.03 0.03 0.04 0.04 0.03 0.03 0.03 0.03 0.02 0.02 0.02 0.03 0.03 0.03 0.03 0.03 0.03 0.03 0.03 0.03 0.03 0.03 0.03 0.03 0.03 0.03 0.04 0.04 0.04
0.05 0.05 0.06 0.05 0.05 0.05 0.05 0.05 0.04 0.04 0.04 0.03 0.03 0.03 0.03 0.03 0.04 0.04 0.03 0.03 0.02 0.02 0.02 0.02 0.02 0.02 0.03 0.02 0.03 0.03 0.04 0.04 0.04 0.04 0.04 0.04 0.04 0.04 0.04 0.04 0.04 0.04 0.03
0.04 0.04 0.04 0.04 0.04 0.03 0.03 0.03 0.03 0.03 0.03 0.03 0.03 0.03 0.03 0.04 0.05 0.05 0.05 0.03 0.02 0.02 0.02 0.02 0.02 0.02 0.03 0.04 0.05 0.05 0.05 0.04 0.04 0.04 0.04 0.05 0.04 0.04 0.04 0.05 0.05 0.05 0.05
0.03 0.03 0.03 0.03 0.03 0.03 0.03 0.02 0.03 0.03 0.03 0.03 0.03 0.03 0.03 0.03 0.04 0.05 0.05 0.04 0.03 0.02 0.02 0.02 0.02 0.02 0.03 0.04 0.05 0.04 0.04 0.04 0.04 0.04 0.04 0.05 0.04 0.04 0.04 0.04 0.05 0.05 0.05
0.02 0.02 0.02 0.02 0.02 0.02 0.03 0.03 0.03 0.03 0.03 0.03 0.03 0.03 0.03 0.03 0.04 0.03 0.04 0.03 0.03 0.03 0.02 0.02 0.03 0.03 0.03 0.04 0.05 0.05 0.05 0.05 0.04 0.04 0.04 0.05 0.04 0.04 0.04 0.04 0.05 0.05 0.05
0.01 0.01 0.01 0.01 0.02 0.02 0.02 0.02 0.03 0.03 0.03 0.03 0.03 0.04 0.03 0.03 0.03 0.03 0.03 0.02 0.02 0.03 0.03 0.03 0.03 0.04 0.04 0.05 0.06 0.05 0.05 0.05 0.05 0.04 0.04 0.04 0.04 0.04 0.04 0.04 0.04 0.05 0.05
0.00 0.00 0.00 0.01 0.01 0.01 0.02 0.02 0.02 0.03 0.03 0.03 0.03 0.03 0.03 0.03 0.03 0.03 0.03 0.03 0.03 0.03 0.03 0.03 0.03 0.03 0.04 0.04 0.04 0.05 0.05 0.05 0.05 0.04 0.04 0.04 0.04 0.04 0.04 0.04 0.04 0.04 0.04
0.00 0.00 0.00 0.00 0.01 0.01 0.01 0.01 0.01 0.02 0.02 0.03 0.03 0.04 0.04 0.04 0.04 0.04 0.03 0.03 0.03 0.03 0.03 0.03 0.03 0.03 0.03 0.03 0.03 0.03 0.03 0.03 0.03 0.03 0.03 0.03 0.03 0.03 0.03 0.03 0.04 0.04 0.04
0.00 0.00 0.00 0.00 0.01 0.01 0.01 0.01 0.01 0.01 0.01 0.02 0.02 0.02 0.03 0.03 0.02 0.02 0.03 0.03 0.02 0.02 0.02 0.02 0.02 0.02 0.02 0.02 0.02 0.02 0.01 0.01 0.02 0.02 0.02 0.02 0.02 0.03 0.03 0.04 0.04 0.04 0.04
0.00 0.00 0.00 0.01 0.01 0.01 0.01 0.01 0.01 0.01 0.02 0.02 0.02 0.02 0.02 0.02 0.02 0.02 0.02 0.02 0.02 0.02 0.02 0.02 0.02 0.01 0.01 0.01 0.01 0.01 0.01 0.01 0.01 0.01 0.01 0.02 0.02 0.02 0.03 0.03 0.03 0.03 0.03
0.00 0.00 0.00 0.01 0.01 0.01 0.01 0.01 0.01 0.02 0.02 0.02 0.02 0.02 0.02 0.02 0.02 0.02 0.02 0.02 0.02 0.02 0.02 0.02 0.02 0.01 0.01 0.01 0.01 0.01 0.01 0.01 0.01 0.01 0.02 0.02 0.02 0.02 0.02 0.02 0.02 0.02 0.02
0.01 0.01 0.01 0.01 0.01 0.01 0.01 0.01 0.01 0.01 0.01 0.02 0.02 0.02 0.02 0.02 0.02 0.02 0.02 0.02 0.02 0.02 0.02 0.01 0.01 0.01 0.01 0.01 0.01 0.01 0.01 0.01 0.01 0.01 0.02 0.02 0.02 0.02 0.02 0.02 0.02 0.02 0.02
0.01 0.01 0.01 0.01 0.01 0.01 0.01 0.01 0.01 0.01 0.01 0.01 0.01 0.01 0.01 0.02 0.02 0.02 0.02 0.02 0.02 0.02 0.01 0.01 0.01 0.01 0.01 0.01 0.01 0.01 0.01 0.02 0.02 0.01 0.01 0.01 0.02 0.02 0.02 0.02 0.02 0.02 0.02
0.01 0.01 0.01 0.01 0.01 0.01 0.01 0.01 0.01 0.01 0.01 0.01 0.01 0.01 0.01 0.02 0.02 0.02 0.02 0.02 0.01 0.01 0.01 0.01 0.01 0.01 0.01 0.01 0.01 0.01 0.02 0.02 0.02 0.02 0.01 0.01 0.02 0.02 0.02 0.02 0.02 0.02 0.02
0.01 0.01 0.01 0.01 0.01 0.01 0.01 0.01 0.01 0.01 0.01 0.01 0.01 0.01 0.01 0.01 0.01 0.01 0.02 0.01 0.01 0.01 0.01 0.01 0.01 0.01 0.01 0.01 0.01 0.02 0.02 0.02 0.02 0.02 0.01 0.01 0.02 0.02 0.02 0.02 0.02 0.02 0.02
0.01 0.01 0.01 0.01 0.01 0.01 0.01 0.01 0.01 0.01 0.01 0.01 0.01 0.01 0.02 0.02 0.01 0.01 0.01 0.01 0.01 0.01 0.01 0.01 0.01 0.01 0.02 0.02 0.02 0.02 0.02 0.02 0.02 0.02 0.02 0.02 0.02 0.02 0.02 0.02 0.02 0.02 0.02
0.01 0.01 0.01 0.01 0.01 0.01 0.01 0.01 0.01 0.01 0.01 0.01 0.01 0.01 0.01 0.01 0.01 0.01 0.01 0.02 0.02 0.02 0.02 0.02 0.02 0.02 0.02 0.02 0.02 0.02 0.02 0.02 0.02 0.02 0.02 0.02 0.02 0.02 0.02 0.02 0.02 0.02 0.02
0.01 0.01 0.01 0.01 0.01 0.01 0.01 0.01 0.01 0.01 0.01 0.01 0.01 0.01 0.01 0.02 0.02 0.02 0.02 0.02 0.02 0.02 0.02 0.02 0.02 0.02 0.02 0.02 0.02 0.02 0.02 0.02 0.02 0.02 0.02 0.02 0.02 0.02 0.02 0.02 0.01 0.01 0.01
0.01 0.01 0.01 0.01 0.01 0.01 0.01 0.01 0.01 0.01 0.02 0.01 0.01 0.01 0.02 0.02 0.02 0.02 0.02 0.02 0.02 0.02 0.02 0.02 0.02 0.02 0.02 0.02 0.02 0.02 0.02 0.02 0.02 0.02 0.02 0.02 0.02 0.02 0.02 0.01 0.01 0.01 0.01
0.01 0.02 0.02 0.01 0.01 0.01 0.01 0.01 0.01 0.02 0.02 0.02 0.02 0.02 0.02 0.02 0.02 0.02 0.02 0.02 0.02 0.02 0.02 0.02 0.02 0.02 0.01 0.01 0.01 0.01 0.01 0.01 0.01 0.02 0.02 0.02 0.02 0.01 0.01 0.01 0.01 0.01 0.02
0.01 0.01 0.01 0.01 0.01 0.01 0.01 0.01 0.02 0.02 0.02 0.02 0.02 0.02 0.02 0.02 0.02 0.02 0.02 0.02 0.02 0.02 0.02 0.02 0.02 0.01 0.01 0.01 0.01 0.01 0.01 0.01 0.01 0.02 0.02 0.02 0.01 0.01 0.01 0.01 0.01 0.01 0.01
MSLP
1025.22 1025.62 1025.94 1026.16 1026.27 1026.25 1026.13 1025.91 1025.61 1025.24 1024.81 1024.32 1023.77 1023.18 1022.56 1021.94 1021.34 1020.78 1020.31 1019.91 1019.59 1019.32 1019.05 1018.73 1018.32 1017.78 1017.10 1016.28 1015.35 1014.37 1013.38 1012.44 1011.57 1010.78 1010.07 1009.41 1008.76 1008.09 1007.37 1006.60 1005.80 1004.99 1004.22
1024.95 1025.36 1025.69 1025.93 1026.05 1026.07 1025.98 1025.80 1025.55 1025.23 1024.86 1024.43 1023.93 1023.39 1022.81 1022.21 1021.61 1021.05 1020.55 1020.12 1019.75 1019.43 1019.12 1018.79 1018.38 1017.87 1017.25 1016.51 1015.68 1014.81 1013.93 1013.08 1012.28 1011.56 1010.88 1010.24 1009.60 1008.93 1008.21 1007.44 1006.65 1005.86 1005.12
1024.64 1025.05 1025.40 1025.64 1025.79 1025.82 1025.77 1025.64 1025.44 1025.18 1024.87 1024.50 1024.08 1023.61 1023.08 1022.53 1021.96 1021.41 1020.90 1020.43 1020.02 1019.65 1019.29 1018.92 1018.50 1018.00 1017.42 1016.75 1016.01 1015.25 1014.48 1013.74 1013.04 1012.38 1011.76 1011.14 1010.51 1009.83 1009.10 1008.33 1007.53 1006.73 1005.99
1024.30 1024.72 1025.07 1025.33 1025.48 1025.54 1025.52 1025.43 1025.29 1025.09 1024.85 1024.56 1024.21 1023.81 1023.35 1022.86 1022.34 1021.81 1021.30 1020.82 1020.38 1019.96 1019.56 1019.14 1018.69 1018.19 1017.63 1017.01 1016.36 1015.69 1015.03 1014.39 1013.78 1013.21 1012.64 1012.06 1011.45 1010.78 1010.06 1009.28 1008.47 1007.67 1006.92
1023.96 1024.38 1024.74 1025.00 1025.17 1025.26 1025.28 1025.23 1025.13 1025.00 1024.82 1024.60 1024.33 1024.00 1023.61 1023.18 1022.72 1022.23 1021.74 1021.25 1020.79 1020.33 1019.88 1019.42 1018.94 1018.43 1017.88 1017.31 1016.71 1016.12 1015.54 1014.99 1014.47 1013.97 1013.46 1012.93 1012.36 1011.73 1011.03 1010.27 1009.49 1008.70 1007.94
1023.63 1024.06 1024.42 1024.70 1024.89 1025.01 1025.06 1025.06 1025.02 1024.94 1024.82 1024.66 1024.45 1024.18 1023.86 1023.49 1023.07 1022.62 1022.15 1021.67 1021.20 1020.72 1020.24 1019.75 1019.24 1018.71 1018.17 1017.61 1017.05 1016.51 1015.99 1015.51 1015.05 1014.61 1014.16 1013.69 1013.17 1012.59 1011.95 1011.25 1010.52 1009.78 1009.06
1023.32 1023.77 1024.14 1024.44 1024.66 1024.82 1024.91 1024.96 1024.97 1024.94 1024.87 1024.76 1024.60 1024.38 1024.10 1023.77 1023.39 1022.97 1022.53 1022.06 1021.58 1021.09 1020.59 1020.08 1019.56 1019.02 1018.46 1017.91 1017.38 1016.86 1016.38 1015.93 1015.51 1015.11 1014.71 1014.29 1013.83 1013.32 1012.75 1012.14 1011.49 1010.84 1010.19
1023.04 1023.50 1023.90 1024.22 1024.48 1024.68 1024.83 1024.93 1024.99 1025.01 1024.99 1024.91 1024.78 1024.59 1024.34 1024.04 1023.68 1023.28 1022.85 1022.40 1021.93 1021.44 1020.94 1020.42 1019.89 1019.34 1018.79 1018.24 1017.71 1017.20 1016.72 1016.28 1015.87 1015.48 1015.11 1014.72 1014.32 1013.87 1013.39 1012.88 1012.34 1011.79 1011.24
1022.76 1023.24 1023.66 1024.03 1024.34 1024.60 1024.80 1024.96 1025.08 1025.14 1025.15 1025.11 1024.99 1024.82 1024.58 1024.28 1023.93 1023.54 1023.13 1022.69 1022.23 1021.76 1021.27 1020.77 1020.25 1019.72 1019.17 1018.63 1018.09 1017.57 1017.08 1016.62 1016.20 1015.80 1015.42 1015.05 1014.67 1014.27 1013.86 1013.43 1012.99 1012.55 1012.11
1022.48 1022.97 1023.43 1023.83 1024.20 1024.51 1024.78 1025.00 1025.17 1025.28 1025.32 1025.30 1025.20 1025.02 1024.78 1024.48 1024.14 1023.76 1023.36 1022.94 1022.51 1022.07 1021.62 1021.16 1020.67 1020.16 1019.64 1019.11 1018.57 1018.04 1017.53 1017.04 1016.58 1016.15 1015.73 1015.33 1014.95 1014.56 1014.19 1013.81 1013.45 1013.09 1012.73
1022.16 1022.67 1023.15 1023.60 1024.02 1024.39 1024.73 1025.00 1025.22 1025.37 1025.45 1025.44 1025.34 1025.17 1024.93 1024.63 1024.30 1023.93 1023.55 1023.17 1022.79 1022.40 1022.01 1021.60 1021.17 1020.71 1020.23 1019.72 1019.20 1018.66 1018.13 1017.60 1017.09 1016.60 1016.12 1015.67 1015.24 1014.82 1014.43 1014.07 1013.72 1013.40 1013.09
1021.81 1022.33 1022.83 1023.32 1023.78 1024.21 1024.59 1024.92 1025.19 1025.37 1025.47 1025.48 1025.39 1025.23 1025.00 1024.71 1024.39 1024.06 1023.72 1023.39 1023.07 1022.76 1022.44 1022.11 1021.76 1021.38 1020.95 1020.49 1019.99 1019.46 1018.91 1018.34 1017.78 1017.21 1016.66 1016.13 1015.61 1015.13 1014.68 1014.27 1013.89 1013.55 1013.24
1021.43 1021.95 1022.47 1022.98 1023.47 1023.94 1024.37 1024.74 1025.03 1025.25 1025.37 1025.40 1025.33 1025.18 1024.97 1024.71 1024.43 1024.15 1023.87 1023.62 1023.38 1023.16 1022.94 1022.71 1022.45 1022.15 1021.80 1021.39 1020.93 1020.41 1019.85 1019.25 1018.63 1018.00 1017.37 1016.74 1016.13 1015.55 1015.00 1014.50 1014.05 1013.63 1013.26
1021.04 1021.56 1022.09 1022.61 1023.13 1023.61 1024.06 1024.46 1024.78 1025.02 1025.16 1025.21 1025.16 1025.04 1024.86 1024.65 1024.43 1024.21 1024.02 1023.86 1023.72 1023.60 1023.49 1023.37 1023.21 1023.00 1022.73 1022.38 1021.95 1021.46 1020.90 1020.28 1019.62 1018.93 1018.22 1017.50 1016.79 1016.11 1015.45 1014.83 1014.26 1013.74 1013.27
1020.67 1021.19 1021.72 1022.25 1022.76 1023.26 1023.72 1024.13 1024.46 1024.71 1024.87 1024.94 1024.92 1024.84 1024.71 1024.56 1024.41 1024.27 1024.18 1024.12 1024.09 1024.08 1024.08 1024.06 1023.99 1023.86 1023.66 1023.37 1022.99 1022.51 1021.96 1021.34 1020.65 1019.92 1019.16 1018.37 1017.58 1016.80 1016.03 1015.30 1014.61 1013.96 1013.37
1020.34 1020.86 1021.38 1021.90 1022.42 1022.92 1023.38 1023.79 1024.13 1024.39 1024.56 1024.65 1024.67 1024.63 1024.55 1024.47 1024.40 1024.36 1024.36 1024.40 1024.47 1024.57 1024.66 1024.72 1024.74 1024.68 1024.53 1024.28 1023.93 1023.48 1022.93 1022.31 1021.62 1020.88 1020.09 1019.27 1018.43 1017.58 1016.74 1015.91 1015.11 1014.35 1013.62
1020.04 1020.56 1021.08 1021.60 1022.11 1022.61 1023.07 1023.48 1023.82 1024.09 1024.28 1024.39 1024.44 1024.44 1024.43 1024.41 1024.42 1024.46 1024.55 1024.68 1024.85 1025.02 1025.19 1025.32 1025.39 1025.37 1025.25 1025.03 1024.69 1024.26 1023.73 1023.12 1022.44 1021.70 1020.92 1020.10 1019.25 1018.38 1017.50 1016.62 1015.74 1014.88 1014.05
1019.75 1020.26 1020.78 1021.31 1021.82 1022.32 1022.79 1023.20 1023.55 1023.83 1024.04 1024.17 1024.26 1024.30 1024.33 1024.38 1024.45 1024.57 1024.73 1024.93 1025.16 1025.40 1025.62 1025.78 1025.88 1025.88 1025.78 1025.56 1025.23 1024.81 1024.29 1023.70 1023.05 1022.34 1021.59 1020.81 1019.98 1019.13 1018.26 1017.36 1016.44 1015.52 1014.60
1019.43 1019.95 1020.47 1021.00 1021.52 1022.03 1022.51 1022.93 1023.30 1023.59 1023.82 1023.98 1024.09 1024.17 1024.25 1024.34 1024.47 1024.63 1024.85 1025.10 1025.38 1025.65 1025.89 1026.07 1026.17 1026.18 1026.07 1025.85 1025.52 1025.10 1024.60 1024.03 1023.42 1022.76 1022.07 1021.34 1020.58 1019.78 1018.94 1018.06 1017.15 1016.20 1015.23
1019.05 1019.57 1020.10 1020.63 1021.17 1021.69 1022.18 1022.62 1023.01 1023.32 1023.57 1023.76 1023.90 1024.01 1024.12 1024.25 1024.41 1024.61 1024.86 1025.14 1025.43 1025.72 1025.97 1026.15 1026.25 1026.24 1026.12 1025.90 1025.57 1025.16 1024.67 1024.14 1023.57 1022.97 1022.35 1021.70 1021.01 1020.29 1019.51 1018.68 1017.78 1016.84 1015.84
1018.62 1019.13 1019.65 1020.18 1020.73 1021.26 1021.77 1022.23 1022.64 1022.98 1023.25 1023.46 1023.62 1023.76 1023.89 1024.04 1024.22 1024.44 1024.71 1025.00 1025.30 1025.59 1025.83 1026.01 1026.10 1026.09 1025.97 1025.74 1025.42 1025.02 1024.57 1024.08 1023.56 1023.02 1022.47 1021.90 1021.29 1020.65 1019.94 1019.16 1018.31 1017.38 1016.38
1018.16 1018.64 1019.14 1019.67 1020.21 1020.75 1021.27 1021.74 1022.17 1022.53 1022.82 1023.05 1023.23 1023.39 1023.54 1023.70 1023.89 1024.12 1024.38 1024.67 1024.97 1025.25 1025.49 1025.67 1025.76 1025.75 1025.63 1025.42 1025.12 1024.76 1024.34 1023.90 1023.44 1022.97 1022.49 1021.99 1021.46 1020.88 1020.24 1019.52 1018.71 1017.81 1016.83
1017.75 1018.18 1018.64 1019.14 1019.67 1020.20 1020.72 1021.20 1021.63 1022.00 1022.30 1022.55 1022.74 1022.91 1023.07 1023.23 1023.43 1023.65 1023.91 1024.19 1024.48 1024.75 1024.99 1025.16 1025.26 1025.26 1025.17 1024.99 1024.73 1024.41 1024.05 1023.66 1023.26 1022.86 1022.44 1022.01 1021.55 1021.03 1020.44 1019.77 1019.00 1018.13 1017.17
1017.48 1017.85 1018.27 1018.73 1019.22 1019.72 1020.22 1020.69 1021.12 1021.48 1021.79 1022.04 1022.24 1022.41 1022.56 1022.73 1022.91 1023.12 1023.37 1023.63 1023.91 1024.17 1024.40 1024.57 1024.68 1024.70 1024.64 1024.50 1024.29 1024.02 1023.72 1023.40 1023.07 1022.73 1022.37 1022.00 1021.59 1021.12 1020.58 1019.95 1019.22 1018.38 1017.45
1017.48 1017.78 1018.14 1018.55 1018.99 1019.45 1019.91 1020.36 1020.76 1021.11 1021.40 1021.64 1021.83 1022.00 1022.14 1022.29 1022.46 1022.65 1022.86 1023.10 1023.35 1023.59 1023.80 1023.97 1024.07 1024.11 1024.08 1023.98 1023.83 1023.62 1023.39 1023.13 1022.87 1022.59 1022.29 1021.97 1021.61 1021.19 1020.69 1020.09 1019.40 1018.60 1017.70
1017.85 1018.08 1018.38 1018.73 1019.11 1019.52 1019.93 1020.33 1020.69 1021.01 1021.27 1021.49 1021.66 1021.81 1021.93 1022.05 1022.19 1022.34 1022.51 1022.71 1022.91 1023.10 1023.28 1023.42 1023.51 1023.55 1023.54 1023.47 1023.36 1023.21 1023.03 1022.84 1022.64 1022.42 1022.19 1021.92 1021.61 1021.23 1020.78 1020.23 1019.58 1018.83 1017.98
Thickness
5482 5483 5484 5485 5485 5485 5486 5486 5487 5486 5486 5486 5485 5484 5484 5482 5481 5479 5478 5476 5475 5473 5472 5471 5471 5470 5469 5468 5468 5467 5466 5465 5467 5469 5467 5466 5465 5464 5463 5462 5462 5460 5459
5473 5474 5475 5475 5476 5476 5476 5477 5477 5477 5476 5476 5476 5475 5475 5474 5473 5471 5470 5468 5466 5465 5464 5463 5463 5462 5461 5460 5460 5459 5458 5458 5458 5459 5458 5456 5455 5454 5454 5452 5452 5450 5449
5463 5464 5465 5465 5465 5465 5466 5466 5467 5467 5466 5466 5466 5466 5465 5464 5464 5463 5461 5460 5458 5457 5456 5455 5455 5454 5453 5452 5451 5451 5450 5450 5449 5449 5449 5447 5445 5444 5443 5443 5442 5441 5440
5452 5453 5453 5454 5454 5454 5455 5455 5455 5456 5456 5455 5455 5455 5455 5455 5454 5454 5452 5451 5449 5448 5448 5447 5447 5446 5446 5444 5443 5443 5442 5440 5440 5440 5440 5438 5436 5434 5432 5432 5431 5430 5430
5442 5442 5442 5442 5443 5444 5444 5444 5444 5444 5444 5444 5444 5444 5444 5444 5445 5444 5443 5442 5441 5440 5439 5438 5439 5438 5438 5437 5436 5435 5433 5432 5431 5431 5430 5428 5426 5424 5423 5421 5420 5420 5420
5430 5431 5431 5431 5431 5433 5433 5433 5433 5433 5432 5432 5433 5433 5433 5434 5435 5435 5433 5432 5432 5431 5430 5430 5429 5429 5428 5428 5427 5427 5426 5424 5424 5422 5421 5420 5419 5416 5414 5411 5409 5409 5409
5419 5419 5419 5419 5420 5421 5422 5422 5422 5422 5421 5421 5422 5422 5423 5424 5425 5424 5423 5422 5421 5420 5419 5419 5419 5418 5417 5418 5418 5417 5416 5414 5414 5413 5412 5411 5410 5408 5404 5401 5399 5398 5398
5407 5407 5407 5407 5409 5410 5411 5411 5411 5410 5410 5411 5411 5411 5412 5414 5414 5414 5413 5411 5410 5410 5409 5409 5408 5408 5407 5407 5406 5405 5405 5404 5403 5402 5402 5401 5399 5397 5395 5393 5390 5386 5385
5395 5395 5396 5396 5397 5398 5398 5399 5399 5399 5400 5400 5400 5400 5401 5402 5403 5403 5401 5400 5399 5399 5398 5398 5397 5397 5397 5396 5395 5394 5393 5392 5391 5391 5390 5389 5388 5386 5383 5380 5377 5375 5373
5382 5382 5383 5384 5385 5386 5387 5387 5387 5388 5389 5389 5389 5389 5389 5390 5391 5391 5390 5389 5388 5387 5387 5386 5386 5386 5386 5385 5384 5383 5381 5381 5379 5378 5377 5376 5375 5374 5372 5370 5367 5363 5361
5368 5369 5370 5370 5371 5373 5374 5375 5375 5376 5376 5377 5377 5377 5378 5378 5379 5379 5379 5378 5377 5376 5376 5375 5375 5376 5376 5375 5374 5372 5372 5370 5367 5365 5364 5363 5362 5361 5359 5357 5355 5353 5350
5354 5355 5356 5357 5358 5360 5361 5361 5362 5363 5364 5364 5364 5365 5365 5366 5366 5366 5367 5366 5366 5365 5365 5364 5363 5363 5363 5363 5362 5361 5359 5356 5353 5352 5351 5349 5348 5347 5346 5345 5343 5341 5341
5340 5342 5343 5345 5346 5347 5349 5349 5350 5350 5351 5352 5352 5353 5353 5353 5353 5354 5354 5354 5354 5352 5352 5351 5351 5350 5350 5348 5347 5346 5344 5341 5340 5338 5337 5336 5335 5334 5332 5332 5331 5330 5329
5326 5328 5331 5332 5334 5335 5336 5337 5338 5338 5339 5340 5340 5341 5341 5340 5340 5341 5341 5340 5341 5340 5338 5337 5337 5336 5335 5334 5332 5330 5329 5327 5326 5325 5324 5322 5320 5319 5318 5319 5318 5317 5316
5312 5314 5317 5319 5321 5322 5324 5324 5326 5328 5328 5330 5330 5330 5330 5330 5331 5331 5330 5330 5329 5328 5325 5324 5322 5320 5319 5318 5316 5315 5314 5313 5311 5310 5308 5307 5307 5306 5306 5305 5304 5304 5303
5298 5300 5302 5305 5307 5308 5310 5312 5315 5316 5318 5319 5319 5319 5319 5320 5320 5320 5319 5318 5317 5316 5312 5310 5308 5306 5304 5302 5301 5300 5299 5298 5297 5296 5294 5294 5293 5293 5292 5292 5292 5291 5291
5283 5285 5287 5290 5292 5294 5295 5297 5300 5303 5304 5305 5306 5307 5308 5308 5308 5308 5307 5306 5305 5303 5299 5297 5295 5293 5291 5289 5287 5286 5285 5284 5284 5282 5282 5281 5280 5279 5279 5280 5280 5279 5278
5269 5271 5273 5275 5277 5279 5281 5283 5285 5286 5288 5289 5292 5294 5296 5296 5296 5296 5295 5292 5290 5288 5286 5284 5282 5280 5278 5276 5274 5273 5272 5271 5270 5270 5269 5268 5267 5266 5267 5268 5268 5267 5266
5257 5259 5260 5262 5264 5266 5268 5270 5272 5273 5274 5275 5277 5279 5281 5282 5282 5282 5281 5278 5276 5274 5272 5271 5269 5267 5265 5263 5262 5260 5260 5259 5258 5257 5257 5256 5255 5254 5255 5255 5255 5255 5254
5244 5246 5247 5249 5250 5252 5255 5257 5258 5259 5260 5261 5263 5264 5265 5266 5266 5265 5264 5263 5262 5260 5258 5257 5256 5254 5253 5251 5250 5248 5247 5247 5246 5245 5245 5245 5244 5243 5244 5244 5244 5243 5243
5232 5233 5234 5235 5236 5238 5240 5242 5244 5245 5246 5247 5248 5249 5252 5250 5250 5249 5249 5248 5248 5247 5245 5244 5243 5242 5241 5240 5238 5237 5237 5236 5235 5235 5234 5234 5234 5233 5234 5233 5233 5233 5233
5218 5219 5220 5221 5223 5224 5225 5227 5229 5230 5231 5232 5233 5234 5237 5235 5234 5234 5234 5234 5234 5233 5232 5232 5231 5231 5230 5229 5229 5228 5227 5226 5226 5225 5225 5224 5224 5224 5224 5224 5223 5223 5222
5205 5206 5207 5208 5209 5210 5211 5212 5214 5215 5216 5217 5218 5219 5219 5219 5220 5220 5220 5220 5220 5221 5220 5220 5220 5220 5220 5219 5219 5219 5219 5218 5218 5217 5216 5215 5214 5214 5214 5214 5214 5213 5213
5191 5192 5193 5194 5195 5196 5197 5198 5200 5201 5202 5203 5204 5204 5205 5206 5206 5207 5207 5207 5208 5208 5209 5209 5210 5210 5210 5210 5210 5211 5210 5210 5210 5209 5208 5206 5205 5204 5204 5204 5204 5204 5203
5178 5178 5180 5180 5181 5181 5182 5184 5186 5187 5189 5190 5191 5192 5192 5193 5194 5195 5195 5196 5196 5197 5198 5199 5200 5200 5201 5201 5202 5202 5202 5202 5201 5200 5199 5198 5196 5196 5195 5195 5194 5194 5194
5164 5165 5166 5166 5167 5168 5168 5170 5172 5173 5175 5177 5178 5179 5180 5181 5182 5183 5184 5184 5185 5186 5187 5188 5190 5190 5191 5192 5193 5193 5193 5193 5193 5192 5190 5189 5188 5187 5186 5185 5185 5185 5184